Regional Weather Roundup
Issued by NWS

Home | Current Version | Previous Version | Text Only | Print | Product List | Glossary Off
Versions: 1 2 3 4 5 6 7 8 9 10 11 12 13 14 15 16 17 18 19 20 21 22 23 24 25 26 27 28 29 30 31 32 33 34 35 36 37 38 39 40 41 42 43 44 45 46 47 48 49 50

000
ASUS43 KBIS 281710
RWRND

NORTH DAKOTA REGIONAL WEATHER ROUNDUP
NATIONAL WEATHER SERVICE BISMARCK ND
1100 AM CST WED JAN 28 2015

NOTE: "FAIR" INDICATES FEW OR NO CLOUDS BELOW 12,000 FEET WITH NO
SIGNIFICANT WEATHER AND/OR OBSTRUCTIONS TO VISIBILITY.


NDZ001>003-009>011-017-281800-
NORTHWEST NORTH DAKOTA

CITY           SKY/WX    TMP DP  RH WIND       PRES   REMARKS
WILLISTON      CLOUDY    31  29  92 N14G22    29.92R FOG
MINOT          FOG       30  28  92 NW15      29.83R VSB 1   WCI  19
MINOT AFB      FRZ DRZL  29  29 100 N14       29.83R VSB 3/4 WCI  19
$$

NDZ018>021-031>035-040>046-281800-
SOUTHWEST NORTH DAKOTA

CITY           SKY/WX    TMP DP  RH WIND       PRES   REMARKS
BISMARCK       CLOUDY    34  32  92 W3        29.78R
DICKINSON      CLOUDY    44  31  60 W21       29.80R
GARRISON         N/A     30  28  92 N14       29.79R WCI  19
HETTINGER ARPT CLOUDY    47  30  51 W17       29.83R
$$

NDZ004>008-012>016-024-026-027-054-281800-
NORTHEAST NORTH DAKOTA

CITY           SKY/WX    TMP DP  RH WIND       PRES   REMARKS
GRAND FORKS    CLOUDY    33  32  96 S12       29.78S FOG
GRND FRKS AFB  CLOUDY    33  32  97 S9        29.78R FOG
DEVILS LAKE    CLOUDY    32  30  93 N7        29.77R VSB 1
$$

NDZ022-023-025-028>030-036>039-047>053-281800-
SOUTHEAST NORTH DAKOTA

CITY           SKY/WX    TMP DP  RH WIND       PRES   REMARKS
FARGO          CLOUDY    35  31  85 S15       29.78S FOG
JAMESTOWN      FOG       31  31 100 CALM      29.73S VSB 1/2
$$




USA.gov is the U.S. government's official web portal to all federal, state and local government web resources and services.